Location: DaltonSkyGazer Observatory
(42.4858°N, 73.1565°W)
Time: 10:22:14
(UTC-04:00)

Helios 1B - Visible Passes

Search period start: 02 August 2015 00:00
Search period end: 12 August 2015 00:00
Orbit: 623 x 625 km, 98.1° (Epoch: 02 August)

Date Brightness Start Highest point End Pass type
(mag) Time Alt. Az. Time Alt. Az. Time Alt. Az.
02 Aug 7.1 01:10:25 13° WNW 01:10:25 13° WNW 01:11:20 10° WNW visible
02 Aug 5.3 23:52:01 52° N 23:52:01 52° N 23:55:20 10° NNW visible
03 Aug 6.7 22:33:37 14° ENE 22:33:49 14° ENE 22:36:06 10° NNE visible
04 Aug 5.7 00:10:52 41° NW 00:10:52 41° NW 00:13:52 10° NNW visible
04 Aug 6.3 22:52:28 20° ENE 22:52:28 20° ENE 22:55:29 10° NNE visible
05 Aug 6.3 00:29:43 28° NW 00:29:43 28° NW 00:32:16 10° NNW visible
05 Aug 5.9 23:11:19 29° NE 23:11:19 29° NE 23:14:31 10° N visible
06 Aug 6.8 00:48:35 19° WNW 00:48:35 19° WNW 00:50:26 10° NW visible
06 Aug 5.6 23:30:11 39° NNE 23:30:11 39° NNE 23:33:21 10° N visible
07 Aug 7.2 01:07:26 13° WNW 01:07:26 13° WNW 01:08:16 10° NW visible
07 Aug 5.6 23:49:02 43° N 23:49:02 43° N 23:52:02 10° N visible
08 Aug 6.9 22:30:38 13° ENE 22:30:38 13° ENE 22:32:30 10° NE visible
09 Aug 6.0 00:07:53 36° NNW 00:07:53 36° NNW 00:10:35 10° NNW visible
09 Aug 6.5 22:49:29 18° NE 22:49:29 18° NE 22:52:02 10° NNE visible
10 Aug 6.4 00:26:45 27° NW 00:26:45 27° NW 00:29:00 10° NNW visible
10 Aug 6.2 23:08:21 26° NE 23:08:21 26° NE 23:11:06 10° N visible
11 Aug 6.9 00:45:36 19° NW 00:45:36 19° NW 00:47:13 10° NW visible
11 Aug 6.0 23:27:12 32° NNE 23:27:12 32° NNE 23:29:58 10° N visible
